User: anonymous   Login
Location: Unspecified
(0.0000°N, 0.0000°E)
Time: 04:53:00
(UTC+00:00)
Language:

AUBIESAT-1 - Orbit

View from above orbital plane
View from above orbital plane
View from above satellite
View from above satellite

Ground track
Ground track

The orbit data is extracted from the following two-line orbital elements,

1 37854U 11061E   18111.65183627  .00001380  00000-0  79852-4 0  9993
2 37854 101.7087 147.6653 0163923 241.0788 117.3898 15.05298210353325
Epoch (UTC): 21 April 2018 15:38:38
Eccentricity: 0.0163923
inclination: 101.7087°
perigee height: 437 km
apogee height: 664 km
right ascension of ascending node: 147.6653°
argument of perigee: 241.0788°
revolutions per day: 15.05298210
mean anomaly at epoch: 117.3898°
orbit number at epoch: 35332

The dashed part of the orbit path shows where the satellite is in the earth's shadow,  

DLR